Location: Unspecified
(34.4950°S, 58.5160°W)
Time: 04:16:50
(UTC+00:00)

SL-4 R/B - Pass Details

Date: 04 December 2021
Orbit: 427 x 660 km, 51.6° (Epoch: 23 January)

Event Time Altitude Azimuth Distance (km) Brightness Sun altitude
Rises 23:17:01 0° 292° (WNW) 2,964 6.3 -4.8°
Reaches altitude 10° 23:19:33 10° 284° (WNW) 2,037 5.6 -5.2°
Maximum altitude 23:23:53 36° 216° (SW) 984 4.1 -6.0°
Drops below altitude 10° 23:28:02 10° 148° (SSE) 1,939 4.8 -6.7°
Sets 23:30:24 0° 139° (SE) 2,802 5.6 -7.1°
